Location: Chiroubles
(46.1812°N, 4.6660°E)
Time: 11:53:55
(UTC+00:00)

N. Korean satellite - Pass Details

Date: 01 November 2020
Orbit: 453 x 503 km, 97.2° (Epoch: 03 December)

Event Time Altitude Azimuth Distance (km) Brightness Sun altitude
Rises 16:56:54 0° 190° (S) 2,528 10.6 -5.8°
Reaches altitude 10° 16:59:09 10° 202° (SSW) 1,644 9.8 -6.2°
Maximum altitude 17:02:15 28° 264° (W) 907 9.0 -6.7°
Drops below altitude 10° 17:05:20 10° 325° (NW) 1,632 9.5 -7.3°
Sets 17:07:35 0° 338° (NNW) 2,505 10.3 -7.6°
